Temp
-14 -14 -15 -16 -16 -16 -16 -16 -15 -14 -14 -14 -14 -15 -15 -15 -15 -16 -17 -17 -18 -20 -20 -20 -21 -21 -22 -22 -22 -22 -21 -22 -21 -21 -21 -21 -20 -20
-15 -16 -16 -16 -16 -16 -16 -16 -16 -16 -15 -15 -15 -15 -16 -16 -17 -19 -20 -22 -23 -24 -24 -24 -24 -25 -24 -24 -24 -24 -24 -24 -23 -23 -23 -23 -23 -23
-16 -17 -17 -17 -16 -16 -16 -16 -16 -16 -16 -16 -16 -17 -18 -19 -21 -22 -23 -24 -25 -25 -26 -26 -25 -25 -25 -25 -25 -25 -25 -25 -25 -25 -24 -24 -24 -24
-17 -17 -17 -17 -17 -17 -17 -17 -17 -17 -18 -18 -18 -21 -22 -23 -24 -25 -26 -26 -26 -26 -26 -26 -27 -27 -27 -26 -26 -26 -26 -26 -26 -26 -26 -26 -26 -25
-17 -17 -17 -17 -17 -17 -17 -18 -18 -19 -20 -22 -23 -24 -25 -26 -26 -26 -25 -25 -26 -27 -27 -27 -26 -26 -26 -27 -27 -27 -27 -27 -27 -27 -26 -26 -26 -26
-18 -18 -18 -17 -18 -18 -18 -19 -20 -22 -24 -25 -26 -26 -26 -26 -26 -25 -25 -27 -27 -27 -27 -27 -27 -27 -27 -27 -27 -28 -27 -28 -28 -28 -27 -27 -26 -26
-18 -18 -18 -18 -19 -20 -20 -22 -24 -25 -26 -26 -26 -26 -27 -27 -27 -27 -27 -27 -28 -28 -28 -28 -28 -28 -28 -28 -28 -28 -28 -29 -29 -28 -28 -28 -27 -27
-18 -18 -19 -19 -20 -21 -24 -25 -26 -26 -27 -27 -28 -28 -28 -28 -27 -27 -27 -27 -27 -29 -29 -29 -28 -29 -29 -29 -29 -30 -30 -30 -29 -30 -30 -30 -29 -28
-19 -19 -20 -21 -22 -24 -25 -26 -27 -28 -29 -29 -29 -28 -27 -27 -27 -27 -27 -27 -27 -28 -27 -28 -28 -29 -28 -29 -30 -29 -29 -29 -30 -29 -30 -30 -30 -29
-20 -21 -21 -23 -25 -26 -26 -27 -28 -29 -29 -29 -28 -28 -27 -27 -27 -27 -26 -26 -26 -27 -25 -26 -28 -28 -28 -29 -30 -29 -29 -30 -30 -30 -30 -30 -30 -30
-21 -22 -24 -25 -26 -27 -27 -27 -28 -28 -28 -28 -28 -27 -27 -27 -27 -25 -25 -25 -25 -26 -25 -26 -26 -27 -28 -28 -29 -29 -29 -29 -29 -30 -29 -30 -30 -30
-22 -25 -26 -26 -28 -28 -28 -27 -27 -27 -28 -28 -28 -27 -27 -27 -26 -25 -25 -25 -25 -26 -26 -26 -26 -26 -28 -28 -28 -29 -28 -28 -28 -29 -29 -29 -29 -29
-25 -26 -26 -27 -28 -28 -28 -28 -27 -27 -27 -27 -27 -27 -27 -26 -27 -26 -26 -26 -26 -26 -26 -26 -26 -27 -28 -28 -28 -28 -28 -28 -28 -28 -29 -29 -28 -29
-26 -27 -27 -28 -27 -27 -27 -27 -27 -27 -27 -27 -27 -27 -27 -27 -27 -26 -26 -26 -26 -26 -26 -26 -27 -27 -28 -28 -28 -28 -28 -28 -27 -27 -27 -28 -27 -27
-27 -28 -28 -27 -27 -27 -27 -27 -27 -27 -27 -27 -27 -27 -26 -26 -26 -26 -26 -26 -26 -26 -26 -26 -27 -28 -28 -28 -28 -28 -28 -27 -27 -27 -27 -27 -27 -27
-28 -28 -27 -27 -27 -26 -27 -27 -27 -27 -27 -27 -27 -26 -26 -26 -26 -26 -26 -26 -26 -26 -26 -27 -28 -28 -28 -28 -28 -27 -27 -26 -26 -27 -26 -26 -26 -26
-27 -27 -27 -27 -27 -27 -27 -27 -27 -27 -27 -26 -26 -26 -26 -26 -26 -26 -26 -26 -26 -26 -26 -27 -27 -27 -28 -28 -28 -27 -27 -26 -26 -26 -26 -25 -25 -25
-27 -27 -27 -27 -27 -27 -27 -27 -27 -27 -26 -26 -26 -26 -26 -26 -25 -25 -25 -25 -26 -26 -26 -26 -26 -27 -27 -27 -27 -27 -26 -26 -26 -25 -26 -25 -25 -25
-27 -27 -27 -27 -27 -27 -27 -27 -27 -27 -27 -26 -26 -26 -26 -25 -25 -25 -25 -25 -26 -26 -26 -26 -26 -26 -26 -26 -26 -26 -26 -26 -25 -25 -25 -25 -24 -24
-27 -27 -27 -27 -27 -27 -27 -27 -28 -28 -28 -27 -27 -27 -26 -26 -26 -25 -25 -25 -25 -25 -26 -26 -26 -26 -26 -26 -26 -26 -25 -25 -25 -25 -24 -24 -24 -24
-27 -26 -27 -27 -27 -27 -27 -28 -28 -28 -28 -27 -27 -27 -27 -27 -27 -26 -26 -25 -25 -25 -26 -26 -26 -26 -26 -26 -26 -26 -25 -25 -25 -24 -24 -24 -24 -23
-26 -27 -27 -27 -27 -27 -28 -28 -28 -28 -28 -28 -28 -28 -28 -28 -28 -27 -27 -26 -25 -26 -26 -26 -26 -26 -26 -26 -25 -26 -25 -25 -25 -25 -24 -24 -24 -23
-26 -26 -27 -27 -27 -28 -28 -28 -28 -28 -28 -28 -28 -28 -28 -28 -29 -28 -28 -27 -26 -26 -26 -26 -26 -25 -25 -26 -26 -25 -25 -25 -24 -25 -25 -24 -24 -23
Height
5615 5605 5596 5587 5578 5567 5556 5544 5532 5528 5533 5525 5500 5486 5467 5452 5436 5421 5407 5396 5387 5377 5367 5361 5355 5352 5348 5346 5343 5340 5341 5338 5338 5340 5346 5349 5355 5361
5598 5589 5579 5570 5560 5548 5536 5522 5506 5491 5489 5491 5479 5456 5438 5418 5399 5383 5368 5357 5351 5346 5336 5330 5326 5321 5315 5312 5311 5310 5308 5307 5306 5309 5312 5316 5321 5328
5581 5572 5562 5551 5539 5525 5511 5497 5482 5461 5444 5457 5436 5422 5406 5388 5372 5358 5341 5325 5318 5317 5312 5304 5298 5292 5288 5285 5282 5280 5279 5279 5280 5281 5282 5286 5290 5297
5565 5554 5542 5529 5516 5501 5485 5470 5453 5434 5408 5394 5402 5385 5369 5359 5348 5336 5325 5310 5295 5290 5284 5277 5271 5267 5264 5260 5256 5253 5253 5252 5253 5255 5258 5262 5265 5271
5547 5534 5520 5506 5492 5475 5457 5439 5420 5401 5381 5358 5354 5351 5340 5328 5320 5311 5303 5295 5279 5267 5263 5256 5250 5246 5241 5236 5234 5232 5231 5230 5231 5232 5235 5239 5243 5249
5527 5513 5497 5480 5463 5445 5426 5406 5386 5368 5353 5338 5326 5319 5311 5303 5289 5281 5280 5270 5263 5253 5247 5238 5233 5226 5219 5215 5215 5213 5213 5212 5212 5212 5213 5216 5220 5225
5507 5490 5473 5454 5434 5414 5392 5373 5355 5340 5327 5314 5303 5294 5286 5277 5268 5263 5259 5254 5247 5239 5234 5228 5221 5213 5207 5201 5199 5198 5197 5197 5196 5196 5195 5196 5199 5203
5485 5468 5448 5429 5410 5390 5368 5350 5333 5314 5304 5288 5282 5274 5268 5260 5256 5250 5245 5243 5241 5230 5220 5219 5208 5205 5197 5192 5190 5188 5188 5187 5185 5183 5181 5179 5179 5183
5460 5441 5423 5402 5379 5362 5348 5332 5318 5303 5287 5276 5271 5264 5258 5252 5247 5243 5238 5233 5228 5221 5208 5209 5200 5198 5191 5187 5183 5181 5179 5177 5172 5170 5167 5164 5163 5164
5435 5414 5392 5373 5355 5339 5325 5313 5303 5290 5281 5271 5262 5256 5250 5246 5239 5233 5228 5223 5217 5209 5201 5200 5193 5190 5184 5180 5176 5175 5173 5169 5164 5156 5151 5149 5147 5148
5412 5389 5366 5350 5336 5320 5307 5298 5290 5282 5273 5264 5256 5250 5244 5237 5230 5225 5221 5217 5213 5203 5196 5193 5188 5184 5179 5175 5172 5170 5166 5161 5155 5146 5139 5135 5133 5132
5394 5370 5351 5331 5318 5306 5297 5288 5281 5274 5268 5262 5255 5247 5239 5234 5227 5220 5215 5211 5206 5199 5190 5186 5181 5179 5175 5169 5168 5165 5162 5157 5150 5143 5135 5127 5121 5118
5368 5352 5334 5320 5308 5299 5289 5282 5275 5270 5264 5258 5251 5245 5238 5231 5225 5219 5213 5207 5202 5194 5186 5181 5177 5175 5171 5168 5166 5164 5161 5156 5150 5142 5133 5124 5116 5111
5347 5333 5321 5310 5300 5292 5285 5279 5273 5266 5260 5254 5248 5242 5237 5231 5225 5219 5212 5204 5196 5190 5183 5177 5174 5172 5170 5169 5167 5165 5161 5157 5151 5144 5136 5127 5118 5114
5332 5320 5311 5302 5295 5287 5282 5277 5270 5264 5258 5252 5247 5242 5237 5231 5225 5218 5211 5204 5196 5189 5183 5178 5175 5172 5170 5170 5169 5167 5165 5160 5154 5150 5142 5137 5132 5131
5323 5314 5305 5297 5291 5285 5279 5273 5267 5262 5258 5253 5247 5242 5236 5231 5225 5219 5213 5207 5199 5191 5186 5181 5177 5174 5173 5172 5171 5171 5169 5164 5160 5154 5151 5150 5151 5154
5316 5308 5301 5294 5289 5282 5276 5271 5266 5261 5256 5251 5246 5241 5236 5230 5224 5219 5213 5207 5200 5195 5190 5185 5181 5179 5177 5176 5176 5175 5172 5169 5166 5162 5159 5160 5163 5168
5311 5304 5298 5292 5286 5281 5275 5270 5264 5259 5254 5249 5244 5239 5234 5230 5225 5220 5215 5209 5203 5198 5194 5190 5187 5184 5183 5183 5182 5181 5179 5176 5173 5170 5170 5169 5172 5177
5307 5300 5295 5290 5284 5279 5274 5269 5263 5258 5252 5246 5241 5236 5232 5228 5224 5220 5215 5211 5206 5201 5198 5194 5191 5190 5190 5189 5188 5187 5187 5184 5181 5181 5180 5180 5180 5186
5303 5298 5293 5288 5283 5278 5272 5266 5261 5256 5251 5244 5238 5234 5229 5226 5222 5219 5215 5212 5209 5204 5200 5197 5196 5195 5195 5195 5195 5194 5194 5191 5190 5189 5189 5188 5189 5192
5302 5297 5292 5286 5280 5275 5269 5264 5260 5255 5250 5244 5238 5232 5227 5223 5220 5217 5215 5212 5210 5207 5204 5201 5200 5199 5199 5200 5200 5201 5200 5200 5199 5199 5197 5197 5198 5201
5301 5296 5290 5284 5279 5273 5268 5262 5257 5251 5246 5242 5237 5232 5227 5223 5219 5216 5214 5211 5209 5208 5206 5204 5203 5203 5203 5203 5204 5205 5206 5206 5207 5207 5207 5206 5206 5210
5299 5294 5288 5283 5277 5272 5266 5260 5254 5249 5244 5241 5237 5232 5228 5223 5219 5216 5213 5211 5209 5208 5207 5206 5205 5205 5206 5206 5207 5209 5210 5211 5213 5214 5216 5217 5218 5220
Wind_Speed
75 73 71 72 73 77 82 88 93 92 89 93 101 107 113 117 119 119 116 114 110 105 102 101 99 95 91 89 88 88 88 88 90 89 88 90 91 95
71 71 72 75 79 85 91 96 101 106 106 105 109 115 118 118 113 109 104 101 95 90 88 88 84 83 84 84 82 80 80 80 81 81 82 84 85 86
69 72 77 83 88 94 99 104 109 115 120 114 118 116 109 104 97 94 91 90 87 83 81 83 81 79 75 75 76 76 75 73 72 72 75 77 78 80
73 79 84 90 94 100 105 110 115 118 124 121 109 98 90 83 81 78 77 80 84 83 78 72 69 69 70 72 71 68 69 70 69 66 65 67 69 71
80 85 91 95 100 106 112 117 121 120 111 104 94 85 80 79 77 77 76 74 72 66 62 66 69 68 67 66 63 60 58 56 57 57 58 59 62 64
85 90 96 103 109 114 119 123 116 104 95 91 89 85 83 81 81 75 62 51 50 56 55 54 52 52 53 54 52 50 49 49 50 53 57 59 62 63
91 98 103 108 115 119 121 108 97 93 92 91 88 83 75 68 57 46 43 43 37 39 41 41 41 41 41 41 37 33 32 33 35 40 47 54 59 60
97 103 108 113 117 112 98 92 93 91 82 76 69 58 48 45 45 40 30 25 25 35 42 38 45 39 40 32 23 19 18 19 24 30 31 33 45 55
104 109 113 117 105 94 89 88 79 69 61 55 46 44 44 38 29 29 32 35 34 36 46 39 41 36 34 27 25 23 22 26 31 37 38 35 38 45
109 113 113 100 92 90 83 73 60 49 45 43 44 40 32 34 39 37 32 23 24 29 28 25 33 31 31 28 30 28 26 31 37 44 43 35 32 44
110 107 95 90 86 76 69 55 45 40 38 37 33 34 39 42 38 30 26 23 20 25 31 27 26 22 20 23 25 19 22 17 18 18 22 31 36 33
102 87 85 80 69 61 53 46 36 31 26 25 33 36 34 30 30 31 32 29 27 25 30 27 27 23 20 18 11 12 11 15 25 23 25 22 22 29
85 79 72 63 53 47 42 35 28 22 29 29 25 24 25 28 28 27 28 28 26 26 27 23 20 18 14 6 4 2 12 19 21 20 20 23 15 16
79 68 59 49 43 40 36 26 26 29 23 21 21 24 23 23 24 25 26 30 33 31 24 18 13 12 5 2 4 4 12 17 17 21 24 12 2 9
66 55 48 41 39 31 24 28 23 19 20 22 22 21 21 21 22 25 28 29 34 28 21 17 11 10 3 3 5 5 14 11 14 14 19 12 21 28
51 45 38 35 25 23 28 22 20 20 19 19 21 21 21 21 21 23 24 24 26 22 19 18 9 9 6 5 2 2 11 6 9 15 17 16 23 30
41 35 32 24 25 27 22 20 20 20 22 21 21 21 20 21 22 22 23 24 24 17 16 18 12 11 11 10 14 16 13 19 20 18 14 19 21 24
34 29 21 24 23 17 20 21 20 23 22 23 23 21 19 19 20 21 21 22 23 16 11 14 14 13 16 22 21 21 22 15 14 18 19 17 23 25
29 21 25 22 18 19 21 21 23 23 23 23 21 21 21 18 17 18 19 19 21 17 12 8 11 11 15 19 20 19 14 15 20 19 22 19 15 26
23 25 23 20 20 22 22 19 18 20 23 25 23 20 18 17 18 16 16 16 17 17 10 12 9 10 11 16 16 18 16 18 12 20 19 20 21 20
23 21 21 21 23 20 19 19 19 20 21 22 24 20 18 15 14 12 13 13 12 12 13 7 11 8 8 13 16 14 18 18 21 24 25 20 14 21
19 20 20 17 18 20 21 22 25 24 21 21 21 21 17 14 12 12 11 11 10 8 9 10 4 8 7 10 15 15 16 16 18 19 24 28 28 27
19 18 17 19 20 22 24 24 23 21 16 16 17 17 15 16 15 12 9 7 6 7 5 5 7 4 7 9 14 15 15 16 20 16 18 23 28 35
Wind_Direction
303 304 305 304 302 301 302 302 302 302 304 303 301 300 299 298 296 294 291 289 287 286 285 284 283 282 280 278 276 273 271 269 268 266 262 258 256 252
306 305 304 303 304 304 303 303 303 303 303 302 300 300 299 297 295 293 291 290 289 288 287 286 286 284 282 280 278 275 272 268 265 263 260 256 253 250
306 305 306 306 305 304 304 304 303 303 302 303 301 300 297 295 292 291 292 292 291 289 289 288 286 284 282 280 277 274 271 268 266 263 258 255 252 250
306 307 306 305 306 305 305 305 304 305 305 304 302 299 297 294 293 292 291 291 292 292 289 288 285 282 281 281 280 276 271 269 267 264 258 255 252 249
307 306 307 307 307 307 308 308 308 307 304 303 303 302 301 300 297 294 293 293 290 290 289 287 286 285 284 281 279 278 276 274 269 263 259 254 252 249
308 309 310 311 310 311 310 309 308 306 305 305 305 304 302 300 298 297 295 292 289 288 290 292 295 290 287 283 280 277 273 271 267 264 261 257 252 248
313 313 313 312 313 312 312 309 308 308 307 304 302 302 302 301 300 301 301 295 292 296 296 302 300 302 299 295 291 284 278 274 271 268 263 257 252 248
314 314 314 313 313 312 310 311 310 308 308 304 306 308 306 306 307 306 303 298 298 295 295 302 305 310 308 298 292 285 280 285 299 301 287 272 256 247
316 315 314 315 313 313 312 310 310 310 307 310 310 307 310 312 313 311 307 305 302 295 287 285 288 300 304 297 296 294 300 307 310 300 291 273 251 246
316 316 317 315 314 313 312 313 314 312 310 310 311 316 318 317 317 320 320 322 312 301 315 330 302 306 307 299 295 298 308 308 303 288 282 268 264 246
318 318 316 315 315 314 316 318 317 315 315 315 318 321 321 321 325 332 334 334 327 307 310 320 321 328 315 301 300 315 318 310 316 327 301 275 265 253
319 317 316 317 317 317 319 319 321 321 321 320 318 319 323 328 331 335 334 335 333 322 313 311 310 329 328 321 330 320 335 354 345 335 341 322 283 260
320 320 318 318 318 320 324 326 327 327 324 326 330 333 338 341 342 344 343 343 342 336 325 325 313 321 337 336 330 57 5 357 344 341 330 324 303 253
322 320 320 320 321 322 323 328 331 331 336 341 345 348 349 345 346 347 348 348 348 349 345 341 341 343 356 12 167 44 21 6 360 355 353 355 47 163
321 322 323 322 323 324 330 331 335 344 352 349 348 347 349 349 353 355 352 351 346 355 2 7 16 6 95 34 201 312 8 10 27 16 4 73 110 122
322 323 322 324 329 329 332 341 347 353 349 346 346 347 346 350 354 356 353 355 358 5 14 7 29 30 67 84 70 341 0 47 12 24 37 112 121 128
325 325 325 329 328 329 337 342 347 347 342 341 342 341 342 347 351 355 358 2 12 16 22 19 32 54 72 83 67 71 49 71 66 55 70 140 138 143
327 328 328 328 330 335 334 338 344 338 335 333 332 334 338 341 344 349 357 6 16 22 25 19 45 62 75 91 80 76 87 90 60 66 57 111 146 150
330 331 331 333 334 335 335 336 336 337 338 336 330 328 330 330 336 342 350 7 13 26 30 35 43 63 90 105 87 85 79 80 74 58 64 69 123 153
335 334 334 336 336 333 335 341 346 349 350 350 344 337 327 325 327 331 339 355 9 24 40 41 54 77 106 120 99 95 82 75 86 69 103 75 93 142
333 335 337 334 334 341 344 342 337 337 341 346 355 350 342 333 327 330 327 332 356 19 34 53 56 68 114 133 126 105 99 85 87 86 92 98 117 103
337 338 337 344 346 344 341 337 333 331 330 342 349 351 347 345 346 349 332 320 325 358 25 38 84 74 100 145 147 133 120 107 95 92 83 86 106 132
342 347 350 349 346 341 338 338 340 344 347 347 351 358 8 12 10 357 338 327 319 316 333 38 51 149 124 128 150 151 141 127 128 108 99 92 98 119